User: anonymous   Login
Location: Columbia
(38.9520°N, 92.3340°W)
Time: 07:24:54
(UTC-05:00)
Language:

SJ-11-01 - Orbit

View from above orbital plane
View from above orbital plane
View from above satellite
View from above satellite

Ground track
Ground track

The orbit data is extracted from the following two-line orbital elements,

1 36088U 09061A   15150.08976418  .00000260  00000-0  64380-4 0  9999
2 36088 098.2391 196.1239 0012964 083.1244 277.1442 14.59629094295354
Epoch (UTC): 30 May 2015 02:09:15
Eccentricity: 0.0012964
inclination: 98.2391°
perigee height: 685 km
apogee height: 703 km
right ascension of ascending node: 196.1239°
argument of perigee: 83.1244°
revolutions per day: 14.59629094
mean anomaly at epoch: 277.1442°
orbit number at epoch: 29535

The dashed part of the orbit path shows where the satellite is in the earth's shadow,  

DLR